Cape Fenshaw FAA Web Cam AK US FAA-ALASKA current weather conditions

sailwx.info

Wind from 334 at 1 knots

Last reported at 2020-Jan-22 02:50 UTC.
Time now 2020-Jan-22 15:49 UTC

Location: N 57°11' W 133°34'.
View on Google Maps.

See reports from other nearby stations

  
Tides and Currents Weather Stations Pressure Air Temp Water Temp Dewpoint Dewpoint Depression Visibility Wind Speed Wind Dir Waves Ship Positions
date/time (UTC)wind fromknots sea level pressurealtimeterstation pressurevisibilityair tempwater tempwave heightnotes
2020-Jan-22 02:50 334 1
2020-Jan-22 02:40 006 1
2020-Jan-22 02:30 238 0
2020-Jan-22 02:20 356 1
2020-Jan-22 02:10 276 0
2020-Jan-22 02:00 336 18
2020-Jan-22 01:50 354 3
2020-Jan-22 01:40 347 8
2020-Jan-22 01:30 034 0
2020-Jan-22 01:20 131 1
2020-Jan-22 01:10 143 1
2020-Jan-22 01:00 113 2
2020-Jan-22 00:50 097 2
2020-Jan-22 00:40 103 1
2020-Jan-22 00:30 107 2
2020-Jan-22 00:20 092 0
2020-Jan-22 00:10 161 0
2020-Jan-22 00:00 101 0
2020-Jan-21 23:50 018 2
2020-Jan-21 23:40 353 3
2020-Jan-21 23:30 016 2
2020-Jan-21 23:20 078 2
2020-Jan-21 23:10 349 1
2020-Jan-21 23:00 020 3
2020-Jan-21 22:50 001 3
2020-Jan-21 22:40 337 3
2020-Jan-21 22:30 357 16
2020-Jan-21 22:20 357 9
2020-Jan-21 22:10 350 12
2020-Jan-21 22:00 351 10
2020-Jan-21 21:50 341 2
2020-Jan-21 21:40 350 6
2020-Jan-21 21:30 350 3
2020-Jan-21 21:20 037 3
2020-Jan-21 21:10 356 6
2020-Jan-21 21:00 355 10
2020-Jan-21 20:50 356 10
2020-Jan-21 20:40 355 9
2020-Jan-21 20:30 356 9
2020-Jan-21 20:20 341 2
2020-Jan-21 20:10 064 1
2020-Jan-21 20:00 090 2
2020-Jan-21 19:50 108 3
2020-Jan-21 19:40 103 3
2020-Jan-21 19:30 100 4
2020-Jan-21 19:20 126 6
2020-Jan-21 19:10 333 5
2020-Jan-21 19:00 348 10
2020-Jan-21 18:50 347 12
2020-Jan-21 18:40 352 15
2020-Jan-21 18:30 354 14
2020-Jan-21 18:20
2020-Jan-21 18:10
2020-Jan-21 18:00 343 11
2020-Jan-21 17:50
2020-Jan-21 17:40 348 6
2020-Jan-21 17:30 357 22
2020-Jan-21 17:20 354 6
2020-Jan-21 17:10
2020-Jan-21 17:00 349 6
2020-Jan-21 16:50 351 5
2020-Jan-21 16:40 353 8
2020-Jan-21 16:30 009 4
2020-Jan-21 16:20 351 7
2020-Jan-21 16:10 353 17
2020-Jan-21 15:50 355 13
2020-Jan-21 02:50 107 11
2020-Jan-21 02:40 129 13
2020-Jan-21 02:30 095 3
2020-Jan-21 02:20 129 18
2020-Jan-21 02:10 133 16
2020-Jan-21 02:00 129 16
2020-Jan-21 01:50 128 15
2020-Jan-21 01:40 125 14
2020-Jan-21 01:30 125 11
2020-Jan-21 01:20 129 15
2020-Jan-21 01:10 125 17
2020-Jan-21 01:00 118 13
2020-Jan-21 00:50 135 14
2020-Jan-21 00:40 121 14
2020-Jan-21 00:30 124 15
2020-Jan-21 00:20 127 16
2020-Jan-21 00:10 133 18
2020-Jan-21 00:00 127 16
2020-Jan-20 23:50 119 18
2020-Jan-20 23:40 132 17
2020-Jan-20 23:30 131 15
2020-Jan-20 23:20 113 15
2020-Jan-20 23:10 132 19
2020-Jan-20 23:00 133 19
2020-Jan-20 22:50 127 17
2020-Jan-20 22:40 129 18
2020-Jan-20 22:30 119 17
2020-Jan-20 22:20 130 9
2020-Jan-20 22:10 132 13
2020-Jan-20 22:00 134 13
2020-Jan-20 21:50 126 15
2020-Jan-20 21:40 124 13
2020-Jan-20 21:30 138 7
2020-Jan-20 21:20 130 20
2020-Jan-20 21:10 130 20
2020-Jan-20 21:00 132 22
2020-Jan-20 20:50 133 23
2020-Jan-20 20:40 125 16
2020-Jan-20 20:30 132 18
2020-Jan-20 20:20 135 20
2020-Jan-20 20:10 184 2
2020-Jan-20 20:00 258 0
2020-Jan-20 19:50 042 5
2020-Jan-20 19:40 344 5
2020-Jan-20 19:30 098 3
2020-Jan-20 19:20 123 8
2020-Jan-20 19:00 101 0
2020-Jan-20 18:50 001 0
2020-Jan-20 18:40 139 2
2020-Jan-20 18:30 075 1
2020-Jan-20 18:20 126 2
2020-Jan-20 18:10 102 2
2020-Jan-20 18:00 067 2
2020-Jan-20 17:50 119 1
2020-Jan-20 17:40 023 0
2020-Jan-20 17:30 064 0
2020-Jan-20 17:20 028 1
2020-Jan-20 17:10 004 2
2020-Jan-20 17:00 183 10
2020-Jan-20 16:50 015 4
2020-Jan-20 16:40 101 1
2020-Jan-20 16:30 126 0
2020-Jan-20 16:20
2020-Jan-20 16:10 358 1
2020-Jan-20 15:50 345 0